Regional Weather Roundup
Issued by NWS

Home | Current Version | Previous Version | Graphics & Text | Print | Product List | Glossary On
Versions: 1 2 3 4 5 6 7 8 9 10 11 12 13 14 15 16 17 18 19 20 21 22 23 24 25 26 27 28 29 30 31 32 33 34 35 36 37 38 39 40 41 42 43 44 45 46 47 48 49 50
188
ASUS43 KIND 210600
RWRIN

WEATHER ROUNDUP FOR INDIANA
NATIONAL WEATHER SERVICE INDIANAPOLIS IN
200 AM EDT MON AUG 21 2017

NOTE: "FAIR" INDICATES FEW OR NO CLOUDS BELOW 12,000 FEET WITH NO
SIGNIFICANT WEATHER AND/OR OBSTRUCTIONS TO VISIBILITY.

* - STATION DOES NOT REPORT WEATHER SUCH AS PRECIPITATION OR FOG.

+ - STATION NOT QUALITY CONTROLLED BY THE NATIONAL WEATHER SERVICE.
    USE DATA WITH CAUTION...ESPECIALLY DEWPOINT AND RELATIVE
    HUMIDITY OBSERVATIONS.

INZ001>003-010>013-019-020-210700-
NORTHWEST INDIANA

CITY           SKY/WX    TMP DP  RH WIND       PRES   REMARKS
MONTICELLO +   LGT RAIN  74  67  77 NW3       30.09R
6HR MIN TEMP:  74; 6HR MAX TEMP:  82;


$$

LMZ046-743>745-210700-
SOUTHERN LAKE MICHIGAN

STATION/POSITION TIME  TEMP    WIND        PRES    WAVE
                       AIR SEA DIR/SP/G            HT
                 (UTC) (F)     (DEG/KT/KT) (MB)    (FT)
BURNS HARBOR     0540   79     170/  7/ 14 1018.3R
MICHIGAN CITY    0530   79     160/  7/ 10   N/A
5NW MICH CITY    0550   77 75  160/  8/ 10   N/A     1

$$

INZ004-005-014>016-021>024-210700-
NORTH CENTRAL INDIANA

CITY           SKY/WX    TMP DP  RH WIND       PRES   REMARKS
GOSHEN         CLOUDY    72  66  81 S6        30.10R
6HR MIN TEMP:  71; 6HR MAX TEMP:  79;

PERU/GRISSOM   CLOUDY    73  66  80 E3        30.10R THUNDER
6HR MIN TEMP:  71; 6HR MAX TEMP:  81;

SOUTH BEND     CLOUDY    75  68  78 S5        30.09R
6HR MIN TEMP:  75; 6HR MAX TEMP:  80; 6HR PCP: TRACE;


$$

INZ006>009-017-018-025>027-210700-
NORTHEAST INDIANA

CITY           SKY/WX    TMP DP  RH WIND       PRES   REMARKS
FORT WAYNE     MOCLDY    68  64  87 CALM      30.11R
6HR MIN TEMP:  67; 6HR MAX TEMP:  78;


$$

INZ028-029-035-036-043>045-051>053-210700-
WEST CENTRAL INDIANA

CITY           SKY/WX    TMP DP  RH WIND       PRES   REMARKS
LAFAYETTE      CLOUDY    75  69  81 NW10G17   30.10R THUNDER
6HR MIN TEMP:  73; 6HR MAX TEMP:  83;

TERRE HAUTE    CLEAR     71  68  90 CALM      30.09R
6HR MIN TEMP:  71; 6HR MAX TEMP:  84;


$$

INZ030>032-037>040-046>048-054>057-064-065-210700-
CENTRAL INDIANA

CITY           SKY/WX    TMP DP  RH WIND       PRES   REMARKS
GREENWOOD *+   PTCLDY    74  68  81 S3        30.11S
INDIANAPOLIS   PTCLDY    74  70  87 S5        30.09S
6HR MIN TEMP:  74; 6HR MAX TEMP:  85;

-EAGLE CREEK   PTCLDY    75  69  81 CALM      30.10R
6HR MIN TEMP:  75; 6HR MAX TEMP:  87;

KOKOMO +       CLOUDY    71  67  87 SE6       30.11R
6HR MIN TEMP:  68; 6HR MAX TEMP:  80;

MT COMFORT *+  PTCLDY    72  68  88 S5        30.11S
SHELBYVILLE    MOCLDY    73  68  84 S5        30.11R
6HR MIN TEMP:  70; 6HR MAX TEMP:  83;


$$

INZ033-034-041-042-049-050-058-059-210700-
EAST CENTRAL INDIANA

CITY           SKY/WX    TMP DP  RH WIND       PRES   REMARKS
MUNCIE         PTCLDY    76  67  73 CALM      30.12R
6HR MIN TEMP:  70; 6HR MAX TEMP:  79;

RICHMOND +     CLEAR     68  64  88 SE6       30.14S

$$

INZ060-061-067>069-081>083-085>088-210700-
SOUTHWEST INDIANA

CITY           SKY/WX    TMP DP  RH WIND       PRES   REMARKS
EVANSVILLE     PTCLDY    77  68  73 W3        30.10R
6HR MIN TEMP:  76; 6HR MAX TEMP:  87;

HUNTINGBURG +  CLEAR     74  69  85 S5        30.11R
6HR MIN TEMP:  72; 6HR MAX TEMP:  85;


$$

INZ062-063-066-070>080-084-089>092-210700-
SOUTH CENTRAL AND SOUTHEAST INDIANA

CITY           SKY/WX    TMP DP  RH WIND       PRES   REMARKS
BLOOMINGTON    CLEAR     74  67  78 SW6       30.11R
6HR MIN TEMP:  69; 6HR MAX TEMP:  82;

MADISON *+     CLEAR     72  68  88 CALM      30.14S

$$





USA.gov is the U.S. government's official web portal to all federal, state and local government web resources and services.